Location: Saratoga Springs
(43.0831°N, 73.7850°W)
Time: 17:26:17
(UTC-04:00)

Tiros 1 despin weight - Pass Details

Date: 18 April 2024
Orbit: 578 x 620 km, 48.2° (Epoch: 29 May)

Event Time Altitude Azimuth Distance (km) Brightness Sun altitude
Rises 18:41:49 0° 293° (WNW) 2,874 ? 9.9°
Reaches altitude 10° 18:44:08 10° 296° (WNW) 1,974 ? 9.5°
Maximum altitude 18:48:40 67° 20° (NNE) 669 ? 8.7°
Drops below altitude 10° 18:53:13 10° 103° (ESE) 1,983 ? 7.9°
Sets 18:55:32 0° 106° (ESE) 2,889 ? 7.4°
